When you browse on this site, cookies collect data to enhance your experience and personalize the content and advertising you see.
Visit our Privacy Policy to learn more. By continuing to use the site, you agree to this use of cookies and data.
  • In Romania
  • List of Countries
  • For 7 days
  • Water Temperature
  • Satellite Maps
  • Weather Map
  • Weather Widgets
  • user-avatar
    Login

    Hourly Weather Łask

    Today, 20 May, Monday

    Time Temperature Precipitation Wind Pressure Humidity
    00:00 +16°C° 0 mm 3 mps 739 mmHg 89%
    01:00 +14°C° 0 mm 3 mps 738 mmHg 91%
    02:00 +14°C° 0 mm 3 mps 738 mmHg 92%
    03:00 +14°C° 0 mm 3 mps 738 mmHg 93%
    04:00 +13°C° 0 mm 3 mps 738 mmHg 95%
    05:00 +16°C° 0 mm 3 mps 738 mmHg 91%
    06:00 +17°C° 0 mm 4 mps 738 mmHg 87%
    07:00 +19°C° 0 mm 4 mps 737 mmHg 84%
    08:00 +20°C° 0 mm 4 mps 737 mmHg 79%
    09:00 +21°C° 0 mm 5 mps 737 mmHg 75%
    10:00 +23°C° 0 mm 5 mps 738 mmHg 70%
    11:00 +23°C° 1.7 mm 5 mps 737 mmHg 68%
    12:00 +24°C° 1.7 mm 6 mps 737 mmHg 65%
    13:00 +26°C° 1.7 mm 6 mps 737 mmHg 63%
    14:00 +25°C° 0.8 mm 5 mps 737 mmHg 64%
    15:00 +25°C° 0.8 mm 4 mps 737 mmHg 64%
    16:00 +25°C° 0.8 mm 3 mps 736 mmHg 64%
    17:00 +24°C° 0.1 mm 2 mps 737 mmHg 68%
    18:00 +23°C° 0.1 mm 2 mps 737 mmHg 72%
    19:00 +21°C° 0.1 mm 1 mps 737 mmHg 75%
    20:00 +20°C° 0 mm 1 mps 737 mmHg 78%
    21:00 +19°C° 0 mm 1 mps 737 mmHg 81%
    22:00 +18°C° 0 mm 1 mps 737 mmHg 84%
    23:00 +17°C° 0.1 mm 2 mps 737 mmHg 86%

    Tomorrow, 21 May, Tuesday

    Time Temperature Precipitation Wind Pressure Humidity
    00:00 +16°C° 0.1 mm 2 mps 737 mmHg 87%
    01:00 +15°C° 0.1 mm 2 mps 737 mmHg 88%
    02:00 +15°C° 0 mm 2 mps 737 mmHg 88%
    03:00 +14°C° 0 mm 2 mps 737 mmHg 89%
    04:00 +14°C° 0 mm 2 mps 737 mmHg 89%
    05:00 +15°C° 0.2 mm 2 mps 737 mmHg 87%
    06:00 +16°C° 0.2 mm 1 mps 737 mmHg 85%
    07:00 +16°C° 0.2 mm 1 mps 737 mmHg 83%
    08:00 +16°C° 0.4 mm 1 mps 737 mmHg 85%
    09:00 +16°C° 0.4 mm 2 mps 737 mmHg 86%
    10:00 +16°C° 0.4 mm 2 mps 737 mmHg 88%
    11:00 +17°C° 0.1 mm 3 mps 737 mmHg 84%
    12:00 +18°C° 0.1 mm 3 mps 737 mmHg 79%
    13:00 +19°C° 0.1 mm 4 mps 737 mmHg 75%
    14:00 +19°C° 0.1 mm 4 mps 736 mmHg 73%
    15:00 +20°C° 0.1 mm 4 mps 736 mmHg 72%
    16:00 +20°C° 0.1 mm 5 mps 736 mmHg 70%
    17:00 +19°C° 0.6 mm 4 mps 736 mmHg 76%
    18:00 +18°C° 0.6 mm 4 mps 735 mmHg 81%
    19:00 +17°C° 0.6 mm 4 mps 735 mmHg 86%
    20:00 +15°C° 1.3 mm 4 mps 735 mmHg 88%
    21:00 +15°C° 1.3 mm 4 mps 735 mmHg 90%
    22:00 +15°C° 1.3 mm 5 mps 735 mmHg 92%
    23:00 +14°C° 0.5 mm 5 mps 735 mmHg 93%

    Day after tomorrow, 22 May, Wednesday

    Time Temperature Precipitation Wind Pressure Humidity
    00:00 +14°C° 0.5 mm 5 mps 735 mmHg 94%
    01:00 +14°C° 0.5 mm 5 mps 735 mmHg 95%
    02:00 +14°C° 0.1 mm 5 mps 735 mmHg 95%
    03:00 +14°C° 0.1 mm 4 mps 735 mmHg 96%
    04:00 +14°C° 0.1 mm 4 mps 735 mmHg 96%
    05:00 +14°C° 0.1 mm 3 mps 736 mmHg 95%
    06:00 +16°C° 0.1 mm 3 mps 736 mmHg 94%
    07:00 +16°C° 0.1 mm 3 mps 736 mmHg 94%
    08:00 +16°C° 0.2 mm 3 mps 736 mmHg 91%
    09:00 +17°C° 0.2 mm 3 mps 736 mmHg 88%
    10:00 +18°C° 0.2 mm 3 mps 737 mmHg 85%
    11:00 +19°C° 1.1 mm 3 mps 737 mmHg 82%
    12:00 +20°C° 1.1 mm 3 mps 737 mmHg 79%
    13:00 +20°C° 1.1 mm 4 mps 737 mmHg 76%
    14:00 +20°C° 0.8 mm 4 mps 737 mmHg 77%
    15:00 +20°C° 0.8 mm 4 mps 737 mmHg 79%
    16:00 +19°C° 0.8 mm 5 mps 737 mmHg 81%
    17:00 +17°C° 0.4 mm 5 mps 737 mmHg 84%
    18:00 +18°C° 0.4 mm 4 mps 737 mmHg 87%
    19:00 +17°C° 0.4 mm 4 mps 737 mmHg 90%
    20:00 +15°C° 0 mm 4 mps 738 mmHg 92%
    21:00 +14°C° 0 mm 3 mps 738 mmHg 94%
    22:00 +13°C° 0 mm 3 mps 738 mmHg 96%
    23:00 +13°C° 0.1 mm 3 mps 738 mmHg 97%

    23 May, Thursday

    Time Temperature Precipitation Wind Pressure Humidity
    00:00 +13°C° 0.1 mm 3 mps 738 mmHg 97%
    01:00 +13°C° 0.1 mm 3 mps 739 mmHg 97%
    02:00 +14°C° 0.4 mm 4 mps 739 mmHg 96%
    03:00 +14°C° 0.4 mm 5 mps 739 mmHg 96%
    04:00 +14°C° 0.4 mm 6 mps 739 mmHg 95%
    05:00 +14°C° 1.5 mm 6 mps 740 mmHg 95%
    06:00 +14°C° 1.5 mm 7 mps 740 mmHg 95%
    07:00 +12°C° 1.5 mm 7 mps 741 mmHg 94%
    08:00 +12°C° 1.1 mm 8 mps 742 mmHg 94%
    09:00 +11°C° 1.1 mm 8 mps 742 mmHg 93%
    10:00 +10°C° 1.1 mm 8 mps 743 mmHg 93%
    11:00 +10°C° 0.1 mm 8 mps 743 mmHg 92%
    12:00 +10°C° 0.1 mm 8 mps 744 mmHg 92%
    13:00 +9°C° 0.1 mm 8 mps 744 mmHg 92%
    14:00 +9°C° 0.1 mm 7 mps 744 mmHg 90%
    15:00 +9°C° 0.1 mm 7 mps 744 mmHg 89%
    16:00 +9°C° 0.1 mm 6 mps 745 mmHg 87%
    17:00 +9°C° 0 mm 5 mps 745 mmHg 86%
    18:00 +10°C° 0 mm 4 mps 745 mmHg 86%
    19:00 +10°C° 0 mm 3 mps 745 mmHg 85%
    20:00 +10°C° 0 mm 3 mps 746 mmHg 87%
    21:00 +9°C° 0 mm 3 mps 746 mmHg 89%
    22:00 +9°C° 0 mm 2 mps 746 mmHg 91%
    23:00 +8°C° 0 mm 3 mps 746 mmHg 92%

    24 May, Friday

    Time Temperature Precipitation Wind Pressure Humidity
    00:00 +8°C° 0 mm 3 mps 746 mmHg 93%
    01:00 +7°C° 0 mm 3 mps 746 mmHg 94%
    02:00 +7°C° 0 mm 3 mps 746 mmHg 94%
    03:00 +6°C° 0 mm 2 mps 746 mmHg 94%
    04:00 +6°C° 0 mm 2 mps 745 mmHg 95%
    05:00 +7°C° 0 mm 2 mps 745 mmHg 90%
    06:00 +9°C° 0 mm 2 mps 745 mmHg 86%
    07:00 +10°C° 0 mm 3 mps 745 mmHg 82%
    08:00 +13°C° 0 mm 2 mps 745 mmHg 76%
    09:00 +14°C° 0 mm 2 mps 745 mmHg 70%
    10:00 +16°C° 0 mm 2 mps 744 mmHg 64%
    11:00 +16°C° 0 mm 2 mps 744 mmHg 60%
    12:00 +17°C° 0 mm 2 mps 743 mmHg 57%
    13:00 +18°C° 0 mm 2 mps 743 mmHg 54%
    14:00 +18°C° 0 mm 2 mps 743 mmHg 53%
    15:00 +19°C° 0 mm 1 mps 742 mmHg 52%
    16:00 +20°C° 0 mm 1 mps 742 mmHg 52%
    17:00 +19°C° 0 mm 1 mps 742 mmHg 57%
    18:00 +18°C° 0 mm 1 mps 741 mmHg 62%
    19:00 +15°C° 0 mm 1 mps 741 mmHg 67%
    20:00 +14°C° 0 mm 1 mps 741 mmHg 70%
    21:00 +13°C° 0 mm 1 mps 741 mmHg 73%
    22:00 +12°C° 0 mm 1 mps 741 mmHg 76%
    23:00 +12°C° 0 mm 1 mps 741 mmHg 78%

    25 May, Saturday

    Time Temperature Precipitation Wind Pressure Humidity
    00:00 +11°C° 0 mm 1 mps 741 mmHg 80%
    01:00 +11°C° 0 mm 1 mps 741 mmHg 82%
    02:00 +10°C° 0 mm 2 mps 741 mmHg 84%
    03:00 +9°C° 0 mm 2 mps 741 mmHg 86%
    04:00 +9°C° 0 mm 2 mps 741 mmHg 87%
    05:00 +12°C° 0 mm 2 mps 741 mmHg 82%
    06:00 +13°C° 0 mm 2 mps 742 mmHg 78%
    07:00 +15°C° 0 mm 2 mps 742 mmHg 73%
    08:00 +17°C° 0 mm 2 mps 742 mmHg 67%
    09:00 +19°C° 0 mm 1 mps 742 mmHg 61%
    10:00 +20°C° 0 mm 1 mps 742 mmHg 56%
    11:00 +21°C° 0 mm 1 mps 742 mmHg 52%
    12:00 +22°C° 0 mm 1 mps 742 mmHg 49%
    13:00 +23°C° 0 mm 1 mps 742 mmHg 46%
    14:00 +23°C° 0 mm 1 mps 741 mmHg 46%
    15:00 +23°C° 0 mm 1 mps 741 mmHg 46%
    16:00 +23°C° 0 mm 1 mps 741 mmHg 46%
    17:00 +21°C° 0 mm 1 mps 741 mmHg 51%
    18:00 +20°C° 0 mm 1 mps 741 mmHg 57%
    19:00 +19°C° 0 mm 1 mps 741 mmHg 63%
    20:00 +18°C° 0 mm 1 mps 741 mmHg 66%
    21:00 +16°C° 0 mm 1 mps 742 mmHg 69%
    22:00 +15°C° 0 mm 1 mps 742 mmHg 73%
    23:00 +14°C° 0 mm 2 mps 742 mmHg 75%
    Show more